Miscellaneous Local Product
Issued by NWS North Platte, NE

Home | Current Version | Previous Version | Text Only | Print | Product List | Glossary On
Versions: 1 2 3 4 5 6 7 8 9 10 11 12 13 14 15 16 17 18 19 20 21 22 23 24 25 26 27 28 29 30 31 32 33 34 35 36 37 38 39 40 41 42 43 44 45 46 47 48 49 50
000
AXUS43 KLBF 250410
MISLBF


WESTERN AND NORTH CENTRAL NEBRASKA HOURLY WEATHER ROUNDUP
NATIONAL WEATHER SERVICE NORTH PLATTE NE
1000 PM CST WED DEC 24 2014

***STATIONS NOT REPORTING VARIABLES SUCH AS SKY/WEATHER OR
PRESSURE ARE PROVIDED BY THE NEBRASKA DEPARTMENT OF
ROADS...RAWS...AND APRS NETWORKS...AND ARE NOT UNDER
NATIONAL WEATHER SERVICE QUALITY CONTROL***

...OBSERVATIONS IN AND NEAR THE EASTERN PANHANDLE OF NEBRASKA...

CITY           SKY/WX    TMP DP  RH WIND       PRES   REMARKS
PINE RIDGE     CLOUDY    29  22  75 W5        29.44F WCI  24
CHADRON        CLOUDY    26  21  81 NW5       29.45F WCI  20
ALLIANCE       CLOUDY    32  26  78 S5        29.46F WCI  27
SIDNEY         CLOUDY    28  21  75 SW9       29.51F WCI  19
WHITECLAY        N/A     25  19  80 E5          N/A  WCI  19
CRESCENT LAKE    N/A     34  24  65 S3          N/A
LISCO            N/A     34  20  58 CALM        N/A
BIG SPRINGS      N/A     27  23  85 CALM        N/A
$$

...OBSERVATIONS IN NORTH CENTRAL NEBRASKA...

CITY           SKY/WX    TMP DP  RH WIND       PRES   REMARKS
VALENTINE      CLOUDY    28  24  85 SW5       29.47F WCI  23
THEDFORD       CLOUDY    35  25  68 SW9       29.50F WCI  28
AINSWORTH      CLOUDY    32  26  77 S10       29.49F WCI  24
O`NEILL        CLEAR     30  25  81 SW10      29.53F WCI  21
ORD            PTCLDY    29  23  78 S6        29.55F WCI  23
BROKEN BOW     CLOUDY    30  24  78 CALM      29.54F
BROWNLEE         N/A     32  25  76 S6          N/A  WCI  27
BREWSTER         N/A     36  26  67 SW7         N/A  WCI  30
ROSE             N/A     33  29  87 S7          N/A  WCI  27
COMSTOCK         N/A     36  27  71 S7          N/A  WCI  30
$$

...OBSERVATIONS IN SOUTHWEST NEBRASKA AND FAR NORTHEAST COLORADO...

CITY           SKY/WX    TMP DP  RH WIND       PRES   REMARKS
WRAY           FAIR      38  21  49 SW10      29.54F WCI  31
HOLYOKE        FAIR      34  27  75 CALM      29.53F
IMPERIAL       MOCLDY    35  21  56 SW6       29.54F WCI  30
OGALLALA       CLOUDY    26  23  88 CALM      29.53F
NORTH PLATTE   CLOUDY    34  24  67 SW5       29.55F WCI  30
MCCOOK         MOCLDY    32  22  66 SW7       29.59F WCI  26
LEXINGTON      MOCLDY    35  26  69 SW7       29.57F WCI  29
PAXTON           N/A     28  24  84 CALM        N/A
GOTHENBURG       N/A     37  23  56 SW3         N/A
CALLAWAY         N/A     31  26  81 S9          N/A  WCI  23
$$

...NORTH PLATTE AREA...

CITY           SKY/WX    TMP DP  RH WIND       PRES   REMARKS
AIRPORT        CLOUDY    34  24  67 SW5       29.55F WCI  30
$$

...SOME WEATHER OBSERVATIONS FROM AROUND THE REGION...

CITY           SKY/WX    TMP DP  RH WIND       PRES   REMARKS
DENVER         CLOUDY    39  19  44 SW9       29.50F WCI  33
LARAMIE        PTCLDY    32  17  54 SW32G45   29.49F WCI  17
CHEYENNE       CLOUDY    39  18  42 W15       29.50F WCI  31
SCOTTSBLUFF    CLOUDY    32  26  78 CALM      29.48F
RAPID CITY     CLOUDY    38  28  67 NW10      29.39F WCI  31
PIERRE         CLOUDY    27  23  85 CALM      29.47S
WINNER         MOCLDY    35  24  64 SW8       29.46F WCI  29
SIOUX FALLS    CLOUDY    26  24  92 S17       29.58F WCI  13
OMAHA          CLEAR     29  27  92 S9        29.72F WCI  20
GRAND ISLAND   PTCLDY    33  22  63 S14       29.61F WCI  23
KANSAS CITY    CLEAR     30  27  88 S8        29.81F WCI  22
WICHITA        PTCLDY    30  23  75 S10       29.81F WCI  21
HAYS           CLEAR     30  16  55 S7        29.69F WCI  23
LIBERAL        CLEAR     30  12  47 S10       29.72F WCI  21
GOODLAND       CLOUDY    33  19  56 S12       29.59F WCI  24
$$



USA.gov is the U.S. government's official web portal to all federal, state and local government web resources and services.